Regional Weather Roundup
Issued by NWS

Home | Current Version | Previous Version | Graphics & Text | Print | Product List | Glossary On
Versions: 1 2 3 4 5 6 7 8 9 10 11 12 13 14 15 16 17 18 19 20 21 22 23 24 25 26 27 28 29 30 31 32 33 34 35 36 37 38 39 40 41 42 43 44 45 46 47 48 49 50
000
ASUS44 KMEG 222200
RWRTN
TENNESSEE HOURLY STATE WEATHER ROUNDUP
NATIONAL WEATHER SERVICE MEMPHIS TN
500 PM CDT FRI MAY 22 2015

TNZ002-004-019-021-049-052-054-088>092-222300-
WEST TENNESSEE

CITY           SKY/WX    TMP DP  RH WIND       PRES   REMARKS
MEMPHIS INTL   PTSUNNY   75  44  33 VRB7      30.23S
NWS MEMPHIS      N/A     73 N/A N/A MISG        N/A
JACKSON        PTSUNNY   71  50  47 E5        30.24F
DYERSBURG      PTSUNNY   72  41  33 E6        30.26S
PARIS          SUNNY     72  45  37 SE5       30.26S
LEXINGTON      SUNNY     72  43  35 NE6       30.24S
$$

TNZ008-025-027-028-033-062-065-066-222300-
NORTH MIDDLE TENNESSEE

CITY           SKY/WX    TMP DP  RH WIND       PRES   REMARKS
NASHVILLE      MOSUNNY   74  42  31 E3        30.26S
CLARKSVILLE    MOSUNNY   72  45  37 SE3       30.25F
COOKEVILLE     SUNNY     72  43  35 VRB3      30.26R
CROSSVILLE     SUNNY     70  40  33 VRB3      30.27S
$$

TNZ061-075-076-078-094-096-097-222300-
SOUTH MIDDLE TENNESSEE

CITY           SKY/WX    TMP DP  RH WIND       PRES   REMARKS
FAYETTEVILLE   SUNNY    N/A N/A N/A MISG      30.23F
TULLAHOMA      SUNNY     72  37  28 NE6       30.26S
WINCHESTER     SUNNY     73  48  40 N9        30.24S
MCMINNVILLE    SUNNY     72  45  37 N8        30.26S
COLUMBIA       SUNNY     75  45  33 E8        30.23F
SHELBYVILLE    SUNNY     73  46  38 N8        30.26S
$$

TNZ017-018-042-046-047-222300-
NORTHEAST TENNESSEE

CITY           SKY/WX    TMP DP  RH WIND       PRES   REMARKS
TRI CITIES     MOSUNNY   72  40  31 VRB6      30.25S
ELIZABETHTON   CLEAR     68  37  32 NW5       30.26R
$$

TNZ012-013-036-069-073-074-222300-
CENTRAL EAST TENNESSEE

CITY           SKY/WX    TMP DP  RH WIND       PRES   REMARKS
KNOXVILLE      MOSUNNY   73  41  31 N6        30.23S
OAK RIDGE      SUNNY     74  41  30 E7        30.25S
GATLINBURG     CLEAR     70  36  28 NE5       30.24S
$$

TNZ083-085-099-222300-
SOUTHEAST TENNESSEE

CITY           SKY/WX    TMP DP  RH WIND       PRES   REMARKS
CHATTANOOGA    MOSUNNY   75  38  26 NE7       30.23S
$$

SKY/WX REPORTED AS FAIR MEANS FEW OR NO CLOUDS BELOW
12 THOUSAND FEET.




USA.gov is the U.S. government's official web portal to all federal, state and local government web resources and services.